Saint Bonnet de Bellac- Haute Vienne - France
Donnes mto: jeudi, 24/11/2011
Date Horaire Temp. E. Hum. E. P.atmo. Pluie Vent Direction Direction Ensoleilleme Solaire P. de rose Temp au vent Rafales
24/11/2011 00:00 8,8 C 93 % 1029,0 hPa 0,0 mm 0,4 km/h (0 Bft) E 90 0 min 0 W/m 7,7 C 8,8 C 0,4 km/h (0 Bft)
24/11/2011 00:05 8,8 C 93 % 1029,1 hPa 0,0 mm 0,7 km/h (0 Bft) E-NE 67 0 min 0 W/m 7,7 C 8,8 C 0,7 km/h (0 Bft)
24/11/2011 00:10 8,8 C 93 % 1029,1 hPa 0,0 mm 0,0 km/h (0 Bft) E-NE 67 0 min 0 W/m 7,7 C 8,8 C 0,0 km/h (0 Bft)
24/11/2011 00:15 8,8 C 93 % 1029,1 hPa 0,0 mm 4,0 km/h (1 Bft) E-NE 67 0 min 0 W/m 7,7 C 8,8 C 4,0 km/h (1 Bft)
24/11/2011 00:20 8,8 C 93 % 1029,2 hPa 0,0 mm 0,0 km/h (0 Bft) E-NE 67 0 min 0 W/m 7,7 C 8,8 C 0,0 km/h (0 Bft)
24/11/2011 00:25 8,6 C 93 % 1029,1 hPa 0,0 mm 0,0 km/h (0 Bft) E-NE 67 0 min 0 W/m 7,5 C 8,6 C 0,0 km/h (0 Bft)
24/11/2011 00:30 8,6 C 93 % 1029,1 hPa 0,0 mm 1,1 km/h (1 Bft) E-NE 67 0 min 0 W/m 7,5 C 8,6 C 3,6 km/h (1 Bft)
24/11/2011 00:35 8,6 C 93 % 1029,1 hPa 0,0 mm 1,4 km/h (1 Bft) E-NE 67 0 min 0 W/m 7,5 C 8,6 C 3,6 km/h (1 Bft)
24/11/2011 00:40 8,6 C 93 % 1029,0 hPa 0,0 mm 1,4 km/h (1 Bft) E-NE 67 0 min 0 W/m 7,5 C 8,6 C 4,3 km/h (1 Bft)
24/11/2011 00:45 8,5 C 92 % 1029,0 hPa 0,0 mm 3,2 km/h (1 Bft) E-SE 112 0 min 0 W/m 7,3 C 8,5 C 6,1 km/h (2 Bft)
24/11/2011 00:50 8,4 C 92 % 1029,1 hPa 0,0 mm 0,0 km/h (0 Bft) E-NE 67 0 min 0 W/m 7,2 C 8,4 C 3,6 km/h (1 Bft)
24/11/2011 00:55 8,3 C 92 % 1029,1 hPa 0,0 mm 1,8 km/h (1 Bft) N-NE 22 0 min 0 W/m 7,1 C 8,3 C 6,5 km/h (2 Bft)
24/11/2011 01:00 8,3 C 92 % 1029,1 hPa 0,0 mm 2,5 km/h (1 Bft) E-NE 67 0 min 0 W/m 7,1 C 8,3 C 4,3 km/h (1 Bft)
24/11/2011 01:05 8,2 C 92 % 1029,1 hPa 0,0 mm 4,3 km/h (1 Bft) NE 45 0 min 0 W/m 7,0 C 8,2 C 9,0 km/h (2 Bft)
24/11/2011 01:10 8,2 C 92 % 1029,1 hPa 0,0 mm 0,4 km/h (0 Bft) NE 45 0 min 0 W/m 7,0 C 8,2 C 3,2 km/h (1 Bft)
24/11/2011 01:15 8,1 C 92 % 1029,1 hPa 0,0 mm 6,5 km/h (2 Bft) NE 45 0 min 0 W/m 6,9 C 7,1 C 7,6 km/h (2 Bft)
24/11/2011 01:20 8,0 C 92 % 1029,0 hPa 0,0 mm 6,1 km/h (2 Bft) N-NE 22 0 min 0 W/m 6,8 C 7,1 C 9,7 km/h (2 Bft)
24/11/2011 01:25 8,0 C 92 % 1028,9 hPa 0,0 mm 2,9 km/h (1 Bft) N-NE 22 0 min 0 W/m 6,8 C 8,0 C 6,1 km/h (2 Bft)
24/11/2011 01:30 7,9 C 92 % 1029,0 hPa 0,0 mm 3,2 km/h (1 Bft) NE 45 0 min 0 W/m 6,7 C 7,9 C 4,0 km/h (1 Bft)
24/11/2011 01:35 7,9 C 92 % 1028,9 hPa 0,0 mm 0,7 km/h (0 Bft) E-NE 67 0 min 0 W/m 6,7 C 7,9 C 0,7 km/h (0 Bft)
24/11/2011 01:40 7,9 C 92 % 1028,9 hPa 0,0 mm 1,4 km/h (1 Bft) N-NE 22 0 min 0 W/m 6,7 C 7,9 C 4,3 km/h (1 Bft)
24/11/2011 01:45 7,9 C 92 % 1028,9 hPa 0,0 mm 2,5 km/h (1 Bft) E-NE 67 0 min 0 W/m 6,7 C 7,9 C 2,9 km/h (1 Bft)
24/11/2011 01:50 7,8 C 92 % 1028,9 hPa 0,0 mm 1,4 km/h (1 Bft) E-NE 67 0 min 0 W/m 6,6 C 7,8 C 4,3 km/h (1 Bft)
24/11/2011 01:55 7,8 C 92 % 1028,8 hPa 0,0 mm 2,2 km/h (1 Bft) NE 45 0 min 0 W/m 6,6 C 7,8 C 4,3 km/h (1 Bft)
24/11/2011 02:02 7,8 C 92 % 1028,7 hPa 0,0 mm 1,8 km/h (1 Bft) NE 45 0 min 0 W/m 6,6 C 7,8 C 4,3 km/h (1 Bft)
24/11/2011 02:05 7,8 C 92 % 1028,7 hPa 0,0 mm 2,5 km/h (1 Bft) NE 45 0 min 0 W/m 6,6 C 7,8 C 8,6 km/h (2 Bft)
24/11/2011 02:10 7,9 C 92 % 1028,7 hPa 0,0 mm 7,2 km/h (2 Bft) E 90 0 min 0 W/m 6,7 C 6,7 C 7,2 km/h (2 Bft)
24/11/2011 02:15 7,9 C 92 % 1028,7 hPa 0,0 mm 1,8 km/h (1 Bft) E-NE 67 0 min 0 W/m 6,7 C 7,9 C 1,8 km/h (1 Bft)
24/11/2011 02:20 7,9 C 92 % 1028,7 hPa 0,0 mm 2,2 km/h (1 Bft) E 90 0 min 0 W/m 6,7 C 7,9 C 4,0 km/h (1 Bft)
24/11/2011 02:25 7,9 C 92 % 1028,7 hPa 0,0 mm 3,6 km/h (1 Bft) E-NE 67 0 min 0 W/m 6,7 C 7,9 C 4,0 km/h (1 Bft)
24/11/2011 02:30 7,9 C 92 % 1028,7 hPa 0,0 mm 0,4 km/h (0 Bft) E-NE 67 0 min 0 W/m 6,7 C 7,9 C 1,8 km/h (1 Bft)
24/11/2011 02:35 7,9 C 92 % 1028,7 hPa 0,0 mm 0,7 km/h (0 Bft) NE 45 0 min 0 W/m 6,7 C 7,9 C 3,2 km/h (1 Bft)
24/11/2011 02:40 7,9 C 92 % 1028,7 hPa 0,0 mm 0,0 km/h (0 Bft) NE 45 0 min 0 W/m 6,7 C 7,9 C 0,0 km/h (0 Bft)
24/11/2011 02:45 7,9 C 92 % 1028,7 hPa 0,0 mm 1,1 km/h (1 Bft) N-NE 22 0 min 0 W/m 6,7 C 7,9 C 1,1 km/h (1 Bft)
24/11/2011 02:50 7,9 C 92 % 1028,7 hPa 0,0 mm 0,4 km/h (0 Bft) N-NE 22 0 min 0 W/m 6,7 C 7,9 C 3,2 km/h (1 Bft)
24/11/2011 02:55 7,9 C 92 % 1028,8 hPa 0,0 mm 0,0 km/h (0 Bft) NE 45 0 min 0 W/m 6,7 C 7,9 C 3,6 km/h (1 Bft)
24/11/2011 03:00 8,0 C 92 % 1028,7 hPa 0,0 mm 2,5 km/h (1 Bft) NE 45 0 min 0 W/m 6,8 C 8,0 C 4,0 km/h (1 Bft)
24/11/2011 03:05 8,1 C 92 % 1028,7 hPa 0,0 mm 1,1 km/h (1 Bft) NE 45 0 min 0 W/m 6,9 C 8,1 C 3,6 km/h (1 Bft)
24/11/2011 03:10 8,1 C 92 % 1028,7 hPa 0,0 mm 1,1 km/h (1 Bft) N-NE 22 0 min 0 W/m 6,9 C 8,1 C 1,1 km/h (1 Bft)
24/11/2011 03:15 8,1 C 92 % 1028,6 hPa 0,0 mm 2,2 km/h (1 Bft) NE 45 0 min 0 W/m 6,9 C 8,1 C 2,9 km/h (1 Bft)
24/11/2011 03:20 8,1 C 92 % 1028,6 hPa 0,0 mm 5,0 km/h (1 Bft) N-NE 22 0 min 0 W/m 6,9 C 7,6 C 6,8 km/h (2 Bft)
24/11/2011 03:25 8,2 C 92 % 1028,7 hPa 0,0 mm 2,2 km/h (1 Bft) NE 45 0 min 0 W/m 7,0 C 8,2 C 4,3 km/h (1 Bft)
24/11/2011 03:30 8,2 C 92 % 1028,5 hPa 0,0 mm 2,2 km/h (1 Bft) NE 45 0 min 0 W/m 7,0 C 8,2 C 4,3 km/h (1 Bft)
24/11/2011 03:35 8,2 C 92 % 1028,5 hPa 0,0 mm 2,2 km/h (1 Bft) N-NE 22 0 min 0 W/m 7,0 C 8,2 C 6,8 km/h (2 Bft)
24/11/2011 03:40 8,2 C 93 % 1028,5 hPa 0,0 mm 2,2 km/h (1 Bft) E-NE 67 0 min 0 W/m 7,1 C 8,2 C 2,2 km/h (1 Bft)
24/11/2011 03:45 8,2 C 93 % 1028,4 hPa 0,0 mm 1,4 km/h (1 Bft) N-NE 22 0 min 0 W/m 7,1 C 8,2 C 3,6 km/h (1 Bft)
24/11/2011 03:50 8,3 C 93 % 1028,4 hPa 0,0 mm 0,4 km/h (0 Bft) NE 45 0 min 0 W/m 7,2 C 8,3 C 0,4 km/h (0 Bft)
24/11/2011 03:55 8,3 C 93 % 1028,4 hPa 0,0 mm 1,8 km/h (1 Bft) E 90 0 min 0 W/m 7,2 C 8,3 C 3,6 km/h (1 Bft)
24/11/2011 04:00 8,3 C 93 % 1028,4 hPa 0,0 mm 1,8 km/h (1 Bft) E-NE 67 0 min 0 W/m 7,2 C 8,3 C 6,1 km/h (2 Bft)
24/11/2011 04:05 8,3 C 93 % 1028,3 hPa 0,0 mm 0,4 km/h (0 Bft) NE 45 0 min 0 W/m 7,2 C 8,3 C 0,4 km/h (0 Bft)
24/11/2011 04:10 8,3 C 93 % 1028,3 hPa 0,0 mm 1,1 km/h (1 Bft) E-SE 112 0 min 0 W/m 7,2 C 8,3 C 3,2 km/h (1 Bft)
24/11/2011 04:15 8,3 C 93 % 1028,3 hPa 0,0 mm 1,8 km/h (1 Bft) E-NE 67 0 min 0 W/m 7,2 C 8,3 C 4,3 km/h (1 Bft)
24/11/2011 04:20 8,3 C 93 % 1028,3 hPa 0,0 mm 3,2 km/h (1 Bft) NE 45 0 min 0 W/m 7,2 C 8,3 C 7,6 km/h (2 Bft)
24/11/2011 04:25 8,3 C 93 % 1028,3 hPa 0,0 mm 0,0 km/h (0 Bft) NE 45 0 min 0 W/m 7,2 C 8,3 C 0,0 km/h (0 Bft)
24/11/2011 04:30 8,4 C 93 % 1028,2 hPa 0,0 mm 1,4 km/h (1 Bft) NE 45 0 min 0 W/m 7,3 C 8,4 C 1,4 km/h (1 Bft)
24/11/2011 04:35 8,4 C 93 % 1028,2 hPa 0,0 mm 3,6 km/h (1 Bft) N-NE 22 0 min 0 W/m 7,3 C 8,4 C 8,3 km/h (2 Bft)
24/11/2011 04:40 8,4 C 93 % 1028,2 hPa 0,0 mm 2,9 km/h (1 Bft) E-NE 67 0 min 0 W/m 7,3 C 8,4 C 4,3 km/h (1 Bft)
24/11/2011 04:45 8,4 C 93 % 1028,3 hPa 0,0 mm 1,8 km/h (1 Bft) NE 45 0 min 0 W/m 7,3 C 8,4 C 4,0 km/h (1 Bft)
24/11/2011 04:50 8,4 C 93 % 1028,3 hPa 0,0 mm 3,6 km/h (1 Bft) NE 45 0 min 0 W/m 7,3 C 8,4 C 6,1 km/h (2 Bft)
24/11/2011 04:55 8,4 C 93 % 1028,4 hPa 0,0 mm 2,9 km/h (1 Bft) NE 45 0 min 0 W/m 7,3 C 8,4 C 6,1 km/h (2 Bft)
24/11/2011 05:00 8,4 C 93 % 1028,5 hPa 0,0 mm 5,4 km/h (2 Bft) NE 45 0 min 0 W/m 7,3 C 7,8 C 9,7 km/h (2 Bft)
24/11/2011 05:05 8,4 C 93 % 1028,4 hPa 0,0 mm 4,0 km/h (1 Bft) NE 45 0 min 0 W/m 7,3 C 8,4 C 7,6 km/h (2 Bft)
24/11/2011 05:10 8,3 C 93 % 1028,5 hPa 0,0 mm 2,9 km/h (1 Bft) NE 45 0 min 0 W/m 7,2 C 8,3 C 6,1 km/h (2 Bft)
24/11/2011 05:15 8,3 C 93 % 1028,4 hPa 0,0 mm 4,0 km/h (1 Bft) NE 45 0 min 0 W/m 7,2 C 8,3 C 6,5 km/h (2 Bft)
24/11/2011 05:20 8,3 C 93 % 1028,2 hPa 0,0 mm 2,5 km/h (1 Bft) N-NE 22 0 min 0 W/m 7,2 C 8,3 C 4,3 km/h (1 Bft)
24/11/2011 05:25 8,3 C 93 % 1028,2 hPa 0,0 mm 2,2 km/h (1 Bft) E-NE 67 0 min 0 W/m 7,2 C 8,3 C 3,2 km/h (1 Bft)
24/11/2011 05:30 8,3 C 93 % 1028,2 hPa 0,0 mm 5,4 km/h (2 Bft) E-NE 67 0 min 0 W/m 7,2 C 7,7 C 5,4 km/h (2 Bft)
24/11/2011 05:35 8,3 C 93 % 1028,1 hPa 0,0 mm 5,0 km/h (1 Bft) NE 45 0 min 0 W/m 7,2 C 7,8 C 11,5 km/h (2 Bft)
24/11/2011 05:40 8,3 C 93 % 1028,1 hPa 0,0 mm 5,4 km/h (2 Bft) NE 45 0 min 0 W/m 7,2 C 7,7 C 5,4 km/h (2 Bft)
24/11/2011 05:45 8,2 C 93 % 1028,2 hPa 0,0 mm 6,1 km/h (2 Bft) E 90 0 min 0 W/m 7,1 C 7,4 C 12,6 km/h (3 Bft)
24/11/2011 05:50 8,2 C 93 % 1028,2 hPa 0,0 mm 4,0 km/h (1 Bft) NE 45 0 min 0 W/m 7,1 C 8,2 C 8,3 km/h (2 Bft)
24/11/2011 05:55 8,2 C 92 % 1028,3 hPa 0,0 mm 5,8 km/h (2 Bft) N-NE 22 0 min 0 W/m 7,0 C 7,5 C 8,6 km/h (2 Bft)
24/11/2011 06:00 8,2 C 92 % 1028,4 hPa 0,0 mm 7,2 km/h (2 Bft) E-NE 67 0 min 0 W/m 7,0 C 7,1 C 13,0 km/h (3 Bft)
24/11/2011 06:05 8,2 C 92 % 1028,4 hPa 0,0 mm 2,5 km/h (1 Bft) NE 45 0 min 0 W/m 7,0 C 8,2 C 3,2 km/h (1 Bft)
24/11/2011 06:10 8,2 C 93 % 1028,4 hPa 0,0 mm 1,1 km/h (1 Bft) N-NE 22 0 min 0 W/m 7,1 C 8,2 C 1,1 km/h (1 Bft)
24/11/2011 06:15 8,2 C 93 % 1028,4 hPa 0,0 mm 2,9 km/h (1 Bft) E-NE 67 0 min 0 W/m 7,1 C 8,2 C 4,3 km/h (1 Bft)
24/11/2011 06:20 8,2 C 93 % 1028,5 hPa 0,0 mm 2,5 km/h (1 Bft) E-NE 67 0 min 0 W/m 7,1 C 8,2 C 4,0 km/h (1 Bft)
24/11/2011 06:25 8,3 C 93 % 1028,6 hPa 0,0 mm 1,4 km/h (1 Bft) NE 45 0 min 0 W/m 7,2 C 8,3 C 3,2 km/h (1 Bft)
24/11/2011 06:30 8,3 C 93 % 1028,6 hPa 0,0 mm 1,8 km/h (1 Bft) N-NE 22 0 min 0 W/m 7,2 C 8,3 C 6,5 km/h (2 Bft)
24/11/2011 06:35 8,2 C 93 % 1028,5 hPa 0,0 mm 2,9 km/h (1 Bft) N-NE 22 0 min 0 W/m 7,1 C 8,2 C 6,5 km/h (2 Bft)
24/11/2011 06:40 8,2 C 93 % 1028,7 hPa 0,0 mm 3,2 km/h (1 Bft) NE 45 0 min 0 W/m 7,1 C 8,2 C 3,6 km/h (1 Bft)
24/11/2011 06:45 8,2 C 92 % 1028,6 hPa 0,0 mm 2,9 km/h (1 Bft) NE 45 0 min 0 W/m 7,0 C 8,2 C 4,3 km/h (1 Bft)
24/11/2011 06:50 8,2 C 92 % 1028,7 hPa 0,0 mm 3,2 km/h (1 Bft) N-NE 22 0 min 0 W/m 7,0 C 8,2 C 4,3 km/h (1 Bft)
24/11/2011 06:55 8,2 C 92 % 1028,7 hPa 0,0 mm 2,9 km/h (1 Bft) NE 45 0 min 0 W/m 7,0 C 8,2 C 4,0 km/h (1 Bft)
24/11/2011 07:00 8,2 C 92 % 1028,8 hPa 0,0 mm 4,3 km/h (1 Bft) NE 45 0 min 0 W/m 7,0 C 8,2 C 7,2 km/h (2 Bft)
24/11/2011 07:05 8,2 C 92 % 1028,8 hPa 0,0 mm 2,9 km/h (1 Bft) NE 45 0 min 0 W/m 7,0 C 8,2 C 6,1 km/h (2 Bft)
24/11/2011 07:10 8,2 C 92 % 1028,9 hPa 0,0 mm 5,4 km/h (2 Bft) NE 45 0 min 0 W/m 7,0 C 7,6 C 8,3 km/h (2 Bft)
24/11/2011 07:15 8,2 C 92 % 1029,0 hPa 0,0 mm 2,2 km/h (1 Bft) NE 45 0 min 0 W/m 7,0 C 8,2 C 6,8 km/h (2 Bft)
24/11/2011 07:20 8,2 C 92 % 1029,0 hPa 0,0 mm 4,3 km/h (1 Bft) E-NE 67 0 min 0 W/m 7,0 C 8,2 C 7,2 km/h (2 Bft)
24/11/2011 07:25 8,2 C 92 % 1028,9 hPa 0,0 mm 1,8 km/h (1 Bft) E-NE 67 0 min 0 W/m 7,0 C 8,2 C 4,3 km/h (1 Bft)
24/11/2011 07:30 8,2 C 92 % 1028,9 hPa 0,0 mm 1,8 km/h (1 Bft) N-NE 22 0 min 0 W/m 7,0 C 8,2 C 6,8 km/h (2 Bft)
24/11/2011 07:35 8,2 C 92 % 1029,0 hPa 0,0 mm 4,7 km/h (1 Bft) N-NE 22 0 min 0 W/m 7,0 C 7,8 C 4,7 km/h (1 Bft)
24/11/2011 07:40 8,2 C 92 % 1028,9 hPa 0,0 mm 1,8 km/h (1 Bft) NE 45 0 min 0 W/m 7,0 C 8,2 C 6,1 km/h (2 Bft)
24/11/2011 07:45 8,2 C 92 % 1028,8 hPa 0,0 mm 0,0 km/h (0 Bft) NE 45 0 min 0 W/m 7,0 C 8,2 C 3,2 km/h (1 Bft)
24/11/2011 07:50 8,2 C 92 % 1028,9 hPa 0,0 mm 2,5 km/h (1 Bft) NE 45 0 min 0 W/m 7,0 C 8,2 C 3,6 km/h (1 Bft)
24/11/2011 07:55 8,2 C 93 % 1028,9 hPa 0,0 mm 2,5 km/h (1 Bft) N-NE 22 0 min 0 W/m 7,1 C 8,2 C 4,3 km/h (1 Bft)
24/11/2011 08:00 8,2 C 92 % 1028,9 hPa 0,0 mm 0,7 km/h (0 Bft) NE 45 0 min 0 W/m 7,0 C 8,2 C 4,3 km/h (1 Bft)
24/11/2011 08:05 8,3 C 93 % 1028,9 hPa 0,0 mm 2,5 km/h (1 Bft) NE 45 0 min 0 W/m 7,2 C 8,3 C 3,6 km/h (1 Bft)
24/11/2011 08:10 8,2 C 93 % 1028,9 hPa 0,0 mm 7,6 km/h (2 Bft) N 360 0 min 0 W/m 7,1 C 7,0 C 9,4 km/h (2 Bft)
24/11/2011 08:15 8,2 C 93 % 1029,0 hPa 0,0 mm 5,8 km/h (2 Bft) E-NE 67 0 min 0 W/m 7,1 C 7,5 C 12,2 km/h (2 Bft)
24/11/2011 08:20 8,2 C 93 % 1029,0 hPa 0,0 mm 2,5 km/h (1 Bft) NE 45 0 min 0 W/m 7,1 C 8,2 C 4,0 km/h (1 Bft)
24/11/2011 08:25 8,3 C 93 % 1029,1 hPa 0,0 mm 2,5 km/h (1 Bft) NE 45 0 min 0 W/m 7,2 C 8,3 C 7,2 km/h (2 Bft)
24/11/2011 08:30 8,2 C 92 % 1029,2 hPa 0,0 mm 3,2 km/h (1 Bft) N-NE 22 0 min 0 W/m 7,0 C 8,2 C 7,6 km/h (2 Bft)
24/11/2011 08:35 8,2 C 92 % 1029,3 hPa 0,0 mm 1,8 km/h (1 Bft) N-NE 22 0 min 0 W/m 7,0 C 8,2 C 3,2 km/h (1 Bft)
24/11/2011 08:40 8,3 C 92 % 1029,4 hPa 0,0 mm 2,5 km/h (1 Bft) NE 45 0 min 0 W/m 7,1 C 8,3 C 6,1 km/h (2 Bft)
24/11/2011 08:45 8,3 C 92 % 1029,4 hPa 0,0 mm 0,4 km/h (0 Bft) NE 45 0 min 0 W/m 7,1 C 8,3 C 4,3 km/h (1 Bft)
24/11/2011 08:50 8,2 C 92 % 1029,4 hPa 0,0 mm 0,0 km/h (0 Bft) NE 45 0 min 0 W/m 7,0 C 8,2 C 0,0 km/h (0 Bft)
24/11/2011 08:55 8,2 C 92 % 1029,5 hPa 0,0 mm 0,4 km/h (0 Bft) NE 45 0 min 0 W/m 7,0 C 8,2 C 0,4 km/h (0 Bft)
24/11/2011 09:00 8,3 C 92 % 1029,5 hPa 0,0 mm 0,0 km/h (0 Bft) E 90 0 min 0 W/m 7,1 C 8,3 C 0,0 km/h (0 Bft)
24/11/2011 09:05 8,3 C 92 % 1029,6 hPa 0,0 mm 2,5 km/h (1 Bft) N-NE 22 0 min 0 W/m 7,1 C 8,3 C 4,0 km/h (1 Bft)
24/11/2011 09:10 8,4 C 93 % 1029,6 hPa 0,0 mm 2,5 km/h (1 Bft) N 360 0 min 0 W/m 7,3 C 8,4 C 6,1 km/h (2 Bft)
24/11/2011 09:15 8,5 C 93 % 1029,6 hPa 0,0 mm 6,8 km/h (2 Bft) N-NE 22 0 min 0 W/m 7,4 C 7,5 C 9,4 km/h (2 Bft)
24/11/2011 09:20 8,6 C 92 % 1029,7 hPa 0,0 mm 6,5 km/h (2 Bft) NE 45 0 min 0 W/m 7,4 C 7,7 C 9,7 km/h (2 Bft)
24/11/2011 09:25 8,8 C 92 % 1029,8 hPa 0,0 mm 5,8 km/h (2 Bft) NE 45 0 min 0 W/m 7,6 C 8,1 C 5,8 km/h (2 Bft)
24/11/2011 09:30 8,8 C 91 % 1029,8 hPa 0,0 mm 3,2 km/h (1 Bft) NE 45 0 min 0 W/m 7,4 C 8,8 C 3,2 km/h (1 Bft)
24/11/2011 09:35 8,9 C 91 % 1029,8 hPa 0,0 mm 3,2 km/h (1 Bft) N-NE 22 0 min 0 W/m 7,5 C 8,9 C 4,3 km/h (1 Bft)
24/11/2011 09:40 8,9 C 90 % 1029,8 hPa 0,0 mm 1,8 km/h (1 Bft) E-NE 67 0 min 0 W/m 7,4 C 8,9 C 2,9 km/h (1 Bft)
24/11/2011 09:45 9,1 C 90 % 1029,8 hPa 0,0 mm 4,0 km/h (1 Bft) E-NE 67 0 min 0 W/m 7,5 C 9,1 C 7,6 km/h (2 Bft)
24/11/2011 09:50 9,3 C 89 % 1029,8 hPa 0,0 mm 2,5 km/h (1 Bft) NE 45 0 min 0 W/m 7,6 C 9,3 C 3,6 km/h (1 Bft)
24/11/2011 09:55 9,4 C 89 % 1029,8 hPa 0,0 mm 5,0 km/h (1 Bft) E-NE 67 0 min 0 W/m 7,7 C 9,1 C 7,6 km/h (2 Bft)
24/11/2011 10:00 9,5 C 88 % 1029,8 hPa 0,0 mm 2,5 km/h (1 Bft) NE 45 0 min 0 W/m 7,6 C 9,5 C 6,1 km/h (2 Bft)
24/11/2011 10:05 9,8 C 87 % 1029,8 hPa 0,0 mm 2,9 km/h (1 Bft) E-NE 67 0 min 0 W/m 7,7 C 9,8 C 6,1 km/h (2 Bft)
24/11/2011 10:10 9,8 C 87 % 1029,8 hPa 0,0 mm 5,0 km/h (1 Bft) E-NE 67 0 min 0 W/m 7,7 C 9,5 C 6,8 km/h (2 Bft)
24/11/2011 10:15 9,9 C 86 % 1029,8 hPa 0,0 mm 5,0 km/h (1 Bft) E 90 0 min 0 W/m 7,7 C 9,6 C 5,0 km/h (1 Bft)
24/11/2011 10:20 10,1 C 86 % 1029,9 hPa 0,0 mm 2,9 km/h (1 Bft) E 90 0 min 0 W/m 7,9 C 10,1 C 2,9 km/h (1 Bft)
24/11/2011 10:25 10,3 C 86 % 1029,8 hPa 0,0 mm 5,0 km/h (1 Bft) NE 45 0 min 0 W/m 8,1 C 10,3 C 9,4 km/h (2 Bft)
24/11/2011 10:30 10,4 C 86 % 1029,8 hPa 0,0 mm 3,6 km/h (1 Bft) NE 45 0 min 0 W/m 8,2 C 10,4 C 4,0 km/h (1 Bft)
24/11/2011 10:35 10,7 C 85 % 1029,8 hPa 0,0 mm 2,5 km/h (1 Bft) NE 45 0 min 0 W/m 8,3 C 10,7 C 4,0 km/h (1 Bft)
24/11/2011 10:40 11,1 C 84 % 1029,9 hPa 0,0 mm 2,5 km/h (1 Bft) NE 45 0 min 0 W/m 8,5 C 11,1 C 2,9 km/h (1 Bft)
24/11/2011 10:45 11,3 C 83 % 1029,9 hPa 0,0 mm 4,0 km/h (1 Bft) N 360 0 min 0 W/m 8,5 C 11,3 C 8,6 km/h (2 Bft)
24/11/2011 10:50 11,4 C 83 % 1030,1 hPa 0,0 mm 3,2 km/h (1 Bft) N-NE 22 0 min 0 W/m 8,6 C 11,4 C 4,3 km/h (1 Bft)
24/11/2011 10:55 11,6 C 82 % 1030,1 hPa 0,0 mm 4,0 km/h (1 Bft) NE 45 0 min 0 W/m 8,6 C 11,6 C 4,3 km/h (1 Bft)
24/11/2011 11:00 11,8 C 81 % 1030,0 hPa 0,0 mm 0,7 km/h (0 Bft) E-NE 67 0 min 0 W/m 8,6 C 11,8 C 4,0 km/h (1 Bft)
24/11/2011 11:05 12,1 C 81 % 1030,1 hPa 0,0 mm 1,1 km/h (1 Bft) E-NE 67 0 min 0 W/m 8,9 C 12,1 C 3,6 km/h (1 Bft)
24/11/2011 11:10 12,3 C 80 % 1030,1 hPa 0,0 mm 1,4 km/h (1 Bft) N-NE 22 0 min 0 W/m 8,9 C 12,3 C 4,3 km/h (1 Bft)
24/11/2011 11:15 12,6 C 80 % 1029,9 hPa 0,0 mm 3,2 km/h (1 Bft) NE 45 0 min 0 W/m 9,2 C 12,6 C 6,1 km/h (2 Bft)
24/11/2011 11:20 12,8 C 78 % 1029,9 hPa 0,0 mm 6,8 km/h (2 Bft) N-NE 22 0 min 0 W/m 9,1 C 12,8 C 8,6 km/h (2 Bft)
24/11/2011 11:25 12,8 C 78 % 1030,1 hPa 0,0 mm 4,0 km/h (1 Bft) NE 45 0 min 0 W/m 9,1 C 12,8 C 6,5 km/h (2 Bft)
24/11/2011 11:30 12,7 C 78 % 1030,0 hPa 0,0 mm 4,7 km/h (1 Bft) NE 45 0 min 0 W/m 9,0 C 12,7 C 7,6 km/h (2 Bft)
24/11/2011 11:35 12,8 C 77 % 1029,9 hPa 0,0 mm 5,8 km/h (2 Bft) E-NE 67 0 min 0 W/m 8,9 C 12,8 C 6,5 km/h (2 Bft)
24/11/2011 11:40 12,9 C 77 % 1029,8 hPa 0,0 mm 4,0 km/h (1 Bft) NE 45 0 min 0 W/m 9,0 C 12,9 C 4,3 km/h (1 Bft)
24/11/2011 11:45 13,1 C 77 % 1029,8 hPa 0,0 mm 5,0 km/h (1 Bft) N-NE 22 0 min 0 W/m 9,2 C 13,1 C 8,3 km/h (2 Bft)
24/11/2011 11:50 13,2 C 76 % 1029,8 hPa 0,0 mm 2,5 km/h (1 Bft) NE 45 0 min 0 W/m 9,1 C 13,2 C 4,3 km/h (1 Bft)
24/11/2011 11:55 13,3 C 75 % 1029,7 hPa 0,0 mm 3,2 km/h (1 Bft) N-NE 22 0 min 0 W/m 9,0 C 13,3 C 4,0 km/h (1 Bft)
24/11/2011 12:00 13,4 C 75 % 1029,7 hPa 0,0 mm 1,8 km/h (1 Bft) N-NE 22 0 min 0 W/m 9,1 C 13,4 C 6,8 km/h (2 Bft)
24/11/2011 12:05 13,5 C 75 % 1029,7 hPa 0,0 mm 3,6 km/h (1 Bft) NE 45 0 min 0 W/m 9,2 C 13,5 C 4,3 km/h (1 Bft)
24/11/2011 12:10 13,6 C 74 % 1029,6 hPa 0,0 mm 1,8 km/h (1 Bft) N-NE 22 0 min 0 W/m 9,1 C 13,6 C 6,1 km/h (2 Bft)
24/11/2011 12:15 13,6 C 74 % 1029,6 hPa 0,0 mm 1,1 km/h (1 Bft) NE 45 0 min 0 W/m 9,1 C 13,6 C 4,0 km/h (1 Bft)
24/11/2011 12:20 13,6 C 74 % 1029,4 hPa 0,0 mm 2,9 km/h (1 Bft) E-NE 67 0 min 0 W/m 9,1 C 13,6 C 4,3 km/h (1 Bft)
24/11/2011 12:25 13,6 C 74 % 1029,3 hPa 0,0 mm 0,0 km/h (0 Bft) NE 45 0 min 0 W/m 9,1 C 13,6 C 3,2 km/h (1 Bft)
24/11/2011 12:30 13,5 C 73 % 1029,2 hPa 0,0 mm 2,5 km/h (1 Bft) N-NE 22 0 min 0 W/m 8,8 C 13,5 C 4,3 km/h (1 Bft)
24/11/2011 12:35 13,5 C 73 % 1029,1 hPa 0,0 mm 2,2 km/h (1 Bft) NE 45 0 min 0 W/m 8,8 C 13,5 C 4,0 km/h (1 Bft)
24/11/2011 12:40 13,5 C 73 % 1029,0 hPa 0,0 mm 2,5 km/h (1 Bft) N-NE 22 0 min 0 W/m 8,8 C 13,5 C 4,3 km/h (1 Bft)
24/11/2011 12:45 13,4 C 73 % 1028,9 hPa 0,0 mm 0,7 km/h (0 Bft) E-SE 112 0 min 0 W/m 8,7 C 13,4 C 4,0 km/h (1 Bft)
24/11/2011 12:50 13,5 C 73 % 1028,9 hPa 0,0 mm 0,7 km/h (0 Bft) NE 45 0 min 0 W/m 8,8 C 13,5 C 0,7 km/h (0 Bft)
24/11/2011 12:55 13,5 C 73 % 1028,8 hPa 0,0 mm 0,0 km/h (0 Bft) E-NE 67 0 min 0 W/m 8,8 C 13,5 C 0,0 km/h (0 Bft)
24/11/2011 13:00 13,5 C 72 % 1028,7 hPa 0,0 mm 4,0 km/h (1 Bft) NE 45 0 min 0 W/m 8,6 C 13,5 C 4,0 km/h (1 Bft)
24/11/2011 13:05 13,5 C 73 % 1028,7 hPa 0,0 mm 2,5 km/h (1 Bft) E 90 0 min 0 W/m 8,8 C 13,5 C 7,2 km/h (2 Bft)
24/11/2011 13:10 13,5 C 73 % 1028,6 hPa 0,0 mm 2,2 km/h (1 Bft) E-NE 67 0 min 0 W/m 8,8 C 13,5 C 4,0 km/h (1 Bft)
24/11/2011 13:15 13,6 C 73 % 1028,5 hPa 0,0 mm 1,4 km/h (1 Bft) NE 45 0 min 0 W/m 8,9 C 13,6 C 4,0 km/h (1 Bft)
24/11/2011 13:20 13,8 C 72 % 1028,4 hPa 0,0 mm 2,2 km/h (1 Bft) E-NE 67 0 min 0 W/m 8,8 C 13,8 C 7,2 km/h (2 Bft)
24/11/2011 13:25 13,9 C 72 % 1028,3 hPa 0,0 mm 2,9 km/h (1 Bft) NE 45 0 min 0 W/m 8,9 C 13,9 C 4,0 km/h (1 Bft)
24/11/2011 13:30 14,0 C 71 % 1028,4 hPa 0,0 mm 0,0 km/h (0 Bft) NE 45 0 min 0 W/m 8,8 C 14,0 C 0,0 km/h (0 Bft)
24/11/2011 13:35 14,2 C 71 % 1028,3 hPa 0,0 mm 1,4 km/h (1 Bft) N 360 0 min 0 W/m 9,0 C 14,2 C 3,2 km/h (1 Bft)
24/11/2011 13:40 14,3 C 71 % 1028,3 hPa 0,0 mm 0,7 km/h (0 Bft) NE 45 0 min 0 W/m 9,1 C 14,3 C 0,7 km/h (0 Bft)
24/11/2011 13:45 14,6 C 70 % 1028,2 hPa 0,0 mm 4,7 km/h (1 Bft) N-NE 22 0 min 0 W/m 9,2 C 14,6 C 6,8 km/h (2 Bft)
24/11/2011 13:50 14,6 C 69 % 1028,2 hPa 0,0 mm 6,5 km/h (2 Bft) N-NE 22 0 min 0 W/m 9,0 C 14,6 C 10,4 km/h (2 Bft)
24/11/2011 13:55 14,5 C 69 % 1028,2 hPa 0,0 mm 6,1 km/h (2 Bft) N-NE 22 0 min 0 W/m 8,9 C 14,5 C 8,3 km/h (2 Bft)
24/11/2011 14:00 14,5 C 69 % 1028,1 hPa 0,0 mm 3,6 km/h (1 Bft) N-NE 22 0 min 0 W/m 8,9 C 14,5 C 7,6 km/h (2 Bft)
24/11/2011 14:05 14,5 C 70 % 1028,0 hPa 0,0 mm 1,8 km/h (1 Bft) E-NE 67 0 min 0 W/m 9,1 C 14,5 C 4,0 km/h (1 Bft)
24/11/2011 14:10 14,5 C 69 % 1028,0 hPa 0,0 mm 3,6 km/h (1 Bft) N-NE 22 0 min 0 W/m 8,9 C 14,5 C 9,0 km/h (2 Bft)
24/11/2011 14:15 14,5 C 69 % 1027,9 hPa 0,0 mm 2,2 km/h (1 Bft) N-NE 22 0 min 0 W/m 8,9 C 14,5 C 2,2 km/h (1 Bft)
24/11/2011 14:20 14,5 C 69 % 1027,6 hPa 0,0 mm 1,8 km/h (1 Bft) N-NE 22 0 min 0 W/m 8,9 C 14,5 C 3,2 km/h (1 Bft)
24/11/2011 14:25 14,4 C 69 % 1027,5 hPa 0,0 mm 1,1 km/h (1 Bft) N-NE 22 0 min 0 W/m 8,8 C 14,4 C 5,8 km/h (2 Bft)
24/11/2011 14:30 14,5 C 70 % 1027,6 hPa 0,0 mm 0,7 km/h (0 Bft) NE 45 0 min 0 W/m 9,1 C 14,5 C 4,3 km/h (1 Bft)
24/11/2011 14:35 14,5 C 69 % 1027,6 hPa 0,0 mm 5,0 km/h (1 Bft) N-NE 22 0 min 0 W/m 8,9 C 14,5 C 6,5 km/h (2 Bft)
24/11/2011 14:40 14,5 C 69 % 1027,6 hPa 0,0 mm 1,8 km/h (1 Bft) NE 45 0 min 0 W/m 8,9 C 14,5 C 1,8 km/h (1 Bft)
24/11/2011 14:45 14,4 C 69 % 1027,5 hPa 0,0 mm 6,8 km/h (2 Bft) N-NE 22 0 min 0 W/m 8,8 C 14,4 C 11,2 km/h (2 Bft)
24/11/2011 14:50 14,4 C 69 % 1027,4 hPa 0,0 mm 5,4 km/h (2 Bft) NE 45 0 min 0 W/m 8,8 C 14,4 C 8,3 km/h (2 Bft)
24/11/2011 14:55 14,3 C 69 % 1027,4 hPa 0,0 mm 3,2 km/h (1 Bft) N-NE 22 0 min 0 W/m 8,7 C 14,3 C 6,5 km/h (2 Bft)
24/11/2011 15:00 14,3 C 69 % 1027,1 hPa 0,0 mm 1,8 km/h (1 Bft) N-NE 22 0 min 0 W/m 8,7 C 14,3 C 6,8 km/h (2 Bft)
24/11/2011 15:05 14,3 C 69 % 1027,1 hPa 0,0 mm 2,9 km/h (1 Bft) N-NE 22 0 min 0 W/m 8,7 C 14,3 C 4,0 km/h (1 Bft)
24/11/2011 15:10 14,2 C 69 % 1027,2 hPa 0,0 mm 0,7 km/h (0 Bft) NE 45 0 min 0 W/m 8,6 C 14,2 C 3,6 km/h (1 Bft)
24/11/2011 15:15 14,2 C 69 % 1027,1 hPa 0,0 mm 5,4 km/h (2 Bft) NE 45 0 min 0 W/m 8,6 C 14,2 C 9,7 km/h (2 Bft)
24/11/2011 15:20 14,1 C 69 % 1027,1 hPa 0,0 mm 3,2 km/h (1 Bft) NE 45 0 min 0 W/m 8,5 C 14,1 C 4,0 km/h (1 Bft)
24/11/2011 15:25 14,0 C 69 % 1027,1 hPa 0,0 mm 3,6 km/h (1 Bft) NE 45 0 min 0 W/m 8,4 C 14,0 C 4,3 km/h (1 Bft)
24/11/2011 15:30 13,9 C 69 % 1027,2 hPa 0,0 mm 3,2 km/h (1 Bft) N-NE 22 0 min 0 W/m 8,3 C 13,9 C 4,3 km/h (1 Bft)
24/11/2011 15:35 13,9 C 69 % 1027,3 hPa 0,0 mm 2,5 km/h (1 Bft) NE 45 0 min 0 W/m 8,3 C 13,9 C 3,6 km/h (1 Bft)
24/11/2011 15:40 13,8 C 68 % 1027,1 hPa 0,0 mm 1,1 km/h (1 Bft) NE 45 0 min 0 W/m 8,0 C 13,8 C 2,9 km/h (1 Bft)
24/11/2011 15:45 13,8 C 69 % 1027,2 hPa 0,0 mm 5,4 km/h (2 Bft) N-NE 22 0 min 0 W/m 8,2 C 13,8 C 10,1 km/h (2 Bft)
24/11/2011 15:50 13,8 C 69 % 1027,1 hPa 0,0 mm 2,2 km/h (1 Bft) N-NE 22 0 min 0 W/m 8,2 C 13,8 C 4,0 km/h (1 Bft)
24/11/2011 15:55 13,6 C 69 % 1027,1 hPa 0,0 mm 5,0 km/h (1 Bft) N-NE 22 0 min 0 W/m 8,0 C 13,6 C 7,9 km/h (2 Bft)
24/11/2011 16:00 13,6 C 69 % 1027,1 hPa 0,0 mm 4,0 km/h (1 Bft) NE 45 0 min 0 W/m 8,0 C 13,6 C 8,3 km/h (2 Bft)
24/11/2011 16:05 13,5 C 69 % 1027,2 hPa 0,0 mm 4,7 km/h (1 Bft) NE 45 0 min 0 W/m 7,9 C 13,5 C 4,7 km/h (1 Bft)
24/11/2011 16:10 13,4 C 70 % 1027,2 hPa 0,0 mm 4,0 km/h (1 Bft) NE 45 0 min 0 W/m 8,0 C 13,4 C 7,6 km/h (2 Bft)
24/11/2011 16:15 13,4 C 70 % 1027,1 hPa 0,0 mm 5,4 km/h (2 Bft) N-NE 22 0 min 0 W/m 8,0 C 13,4 C 5,4 km/h (2 Bft)
24/11/2011 16:20 13,3 C 70 % 1027,1 hPa 0,0 mm 0,0 km/h (0 Bft) N-NE 22 0 min 0 W/m 7,9 C 13,3 C 3,2 km/h (1 Bft)
24/11/2011 16:25 13,2 C 71 % 1027,0 hPa 0,0 mm 1,1 km/h (1 Bft) N-NE 22 0 min 0 W/m 8,1 C 13,2 C 1,1 km/h (1 Bft)
24/11/2011 16:30 13,1 C 72 % 1027,1 hPa 0,0 mm 0,0 km/h (0 Bft) N-NE 22 0 min 0 W/m 8,2 C 13,1 C 0,0 km/h (0 Bft)
24/11/2011 16:35 12,9 C 72 % 1027,1 hPa 0,0 mm 0,0 km/h (0 Bft) N 360 0 min 0 W/m 8,0 C 12,9 C 0,0 km/h (0 Bft)
24/11/2011 16:40 12,8 C 73 % 1027,1 hPa 0,0 mm 0,0 km/h (0 Bft) N 360 0 min 0 W/m 8,1 C 12,8 C 0,0 km/h (0 Bft)
24/11/2011 16:45 12,7 C 73 % 1027,2 hPa 0,0 mm 2,5 km/h (1 Bft) N-NE 22 0 min 0 W/m 8,0 C 12,7 C 3,2 km/h (1 Bft)
24/11/2011 16:50 12,5 C 73 % 1027,1 hPa 0,0 mm 3,6 km/h (1 Bft) N 360 0 min 0 W/m 7,8 C 12,5 C 6,8 km/h (2 Bft)
24/11/2011 16:55 12,3 C 74 % 1027,1 hPa 0,0 mm 3,2 km/h (1 Bft) N 360 0 min 0 W/m 7,8 C 12,3 C 3,2 km/h (1 Bft)
24/11/2011 17:00 12,1 C 74 % 1027,1 hPa 0,0 mm 3,2 km/h (1 Bft) N-NE 22 0 min 0 W/m 7,6 C 12,1 C 3,2 km/h (1 Bft)
24/11/2011 17:05 11,8 C 75 % 1027,1 hPa 0,0 mm 0,4 km/h (0 Bft) N-NE 22 0 min 0 W/m 7,5 C 11,8 C 4,0 km/h (1 Bft)
24/11/2011 17:10 11,6 C 76 % 1027,2 hPa 0,0 mm 1,8 km/h (1 Bft) N-NE 22 0 min 0 W/m 7,5 C 11,6 C 4,3 km/h (1 Bft)
24/11/2011 17:15 11,4 C 76 % 1027,2 hPa 0,0 mm 0,7 km/h (0 Bft) NE 45 0 min 0 W/m 7,3 C 11,4 C 3,6 km/h (1 Bft)
24/11/2011 17:20 11,2 C 77 % 1027,1 hPa 0,0 mm 0,4 km/h (0 Bft) NE 45 0 min 0 W/m 7,3 C 11,2 C 0,4 km/h (0 Bft)
24/11/2011 17:25 11,1 C 78 % 1027,1 hPa 0,0 mm 0,4 km/h (0 Bft) N-NE 22 0 min 0 W/m 7,4 C 11,1 C 4,3 km/h (1 Bft)
24/11/2011 17:30 10,8 C 78 % 1026,9 hPa 0,0 mm 1,8 km/h (1 Bft) N-NE 22 0 min 0 W/m 7,1 C 10,8 C 4,3 km/h (1 Bft)
24/11/2011 17:35 10,6 C 79 % 1026,8 hPa 0,0 mm 0,0 km/h (0 Bft) NE 45 0 min 0 W/m 7,1 C 10,6 C 3,2 km/h (1 Bft)
24/11/2011 17:40 10,5 C 79 % 1026,7 hPa 0,0 mm 1,8 km/h (1 Bft) NE 45 0 min 0 W/m 7,0 C 10,5 C 1,8 km/h (1 Bft)
24/11/2011 17:45 10,3 C 80 % 1026,7 hPa 0,0 mm 0,4 km/h (0 Bft) N-NE 22 0 min 0 W/m 7,0 C 10,3 C 0,4 km/h (0 Bft)
24/11/2011 17:50 10,1 C 80 % 1026,9 hPa 0,0 mm 0,0 km/h (0 Bft) N-NE 22 0 min 0 W/m 6,8 C 10,1 C 0,0 km/h (0 Bft)
24/11/2011 17:55 9,9 C 81 % 1026,9 hPa 0,0 mm 0,4 km/h (0 Bft) N-NE 22 0 min 0 W/m 6,8 C 9,9 C 2,9 km/h (1 Bft)
24/11/2011 18:00 9,8 C 81 % 1026,9 hPa 0,0 mm 0,0 km/h (0 Bft) NE 45 0 min 0 W/m 6,7 C 9,8 C 0,0 km/h (0 Bft)
24/11/2011 18:05 9,6 C 82 % 1027,0 hPa 0,0 mm 0,0 km/h (0 Bft) N-NE 22 0 min 0 W/m 6,7 C 9,6 C 0,0 km/h (0 Bft)
24/11/2011 18:10 9,5 C 82 % 1027,1 hPa 0,0 mm 0,0 km/h (0 Bft) N-NE 22 0 min 0 W/m 6,6 C 9,5 C 0,0 km/h (0 Bft)
24/11/2011 18:15 9,4 C 82 % 1027,1 hPa 0,0 mm 0,0 km/h (0 Bft) N-NE 22 0 min 0 W/m 6,5 C 9,4 C 0,0 km/h (0 Bft)
24/11/2011 18:20 9,3 C 82 % 1027,1 hPa 0,0 mm 2,5 km/h (1 Bft) N-NE 22 0 min 0 W/m 6,4 C 9,3 C 4,0 km/h (1 Bft)
24/11/2011 18:25 9,3 C 83 % 1027,1 hPa 0,0 mm 3,2 km/h (1 Bft) N-NE 22 0 min 0 W/m 6,6 C 9,3 C 4,3 km/h (1 Bft)
24/11/2011 18:30 9,2 C 83 % 1027,2 hPa 0,0 mm 0,0 km/h (0 Bft) N-NE 22 0 min 0 W/m 6,5 C 9,2 C 0,0 km/h (0 Bft)
24/11/2011 18:35 9,1 C 83 % 1027,3 hPa 0,0 mm 0,7 km/h (0 Bft) NE 45 0 min 0 W/m 6,4 C 9,1 C 3,6 km/h (1 Bft)
24/11/2011 18:40 8,9 C 84 % 1027,3 hPa 0,0 mm 0,0 km/h (0 Bft) N-NE 22 0 min 0 W/m 6,3 C 8,9 C 0,0 km/h (0 Bft)
24/11/2011 18:45 8,8 C 84 % 1027,3 hPa 0,0 mm 0,0 km/h (0 Bft) NE 45 0 min 0 W/m 6,2 C 8,8 C 0,0 km/h (0 Bft)
24/11/2011 18:50 8,8 C 84 % 1027,4 hPa 0,0 mm 0,0 km/h (0 Bft) NE 45 0 min 0 W/m 6,2 C 8,8 C 0,0 km/h (0 Bft)
24/11/2011 18:55 8,6 C 84 % 1027,4 hPa 0,0 mm 0,0 km/h (0 Bft) NE 45 0 min 0 W/m 6,1 C 8,6 C 0,0 km/h (0 Bft)
24/11/2011 19:00 8,3 C 84 % 1027,5 hPa 0,0 mm 0,0 km/h (0 Bft) NE 45 0 min 0 W/m 5,8 C 8,3 C 0,0 km/h (0 Bft)
24/11/2011 19:05 8,1 C 84 % 1027,4 hPa 0,0 mm 0,0 km/h (0 Bft) NE 45 0 min 0 W/m 5,6 C 8,1 C 0,0 km/h (0 Bft)
24/11/2011 19:10 7,9 C 84 % 1027,5 hPa 0,0 mm 0,0 km/h (0 Bft) NE 45 0 min 0 W/m 5,4 C 7,9 C 0,0 km/h (0 Bft)
24/11/2011 19:15 7,8 C 84 % 1027,4 hPa 0,0 mm 0,0 km/h (0 Bft) NE 45 0 min 0 W/m 5,3 C 7,8 C 0,0 km/h (0 Bft)
24/11/2011 19:20 7,6 C 85 % 1027,3 hPa 0,0 mm 0,0 km/h (0 Bft) NE 45 0 min 0 W/m 5,2 C 7,6 C 0,0 km/h (0 Bft)
24/11/2011 19:25 7,5 C 85 % 1027,3 hPa 0,0 mm 0,0 km/h (0 Bft) N 360 0 min 0 W/m 5,1 C 7,5 C 0,0 km/h (0 Bft)
24/11/2011 19:30 7,4 C 85 % 1027,3 hPa 0,0 mm 0,0 km/h (0 Bft) NE 45 0 min 0 W/m 5,0 C 7,4 C 0,0 km/h (0 Bft)
24/11/2011 19:35 7,2 C 85 % 1027,3 hPa 0,0 mm 0,0 km/h (0 Bft) NE 45 0 min 0 W/m 4,9 C 7,2 C 0,0 km/h (0 Bft)
24/11/2011 19:40 7,2 C 86 % 1027,3 hPa 0,0 mm 0,0 km/h (0 Bft) N-NE 22 0 min 0 W/m 5,0 C 7,2 C 0,0 km/h (0 Bft)
24/11/2011 19:45 7,1 C 86 % 1027,3 hPa 0,0 mm 0,0 km/h (0 Bft) N-NE 22 0 min 0 W/m 4,9 C 7,1 C 0,0 km/h (0 Bft)
24/11/2011 19:50 7,1 C 86 % 1027,3 hPa 0,0 mm 0,0 km/h (0 Bft) N-NE 22 0 min 0 W/m 4,9 C 7,1 C 0,0 km/h (0 Bft)
24/11/2011 19:55 6,9 C 86 % 1027,3 hPa 0,0 mm 0,0 km/h (0 Bft) N-NE 22 0 min 0 W/m 4,7 C 6,9 C 0,0 km/h (0 Bft)
24/11/2011 20:00 6,8 C 86 % 1027,3 hPa 0,0 mm 0,0 km/h (0 Bft) N-NE 22 0 min 0 W/m 4,6 C 6,8 C 0,0 km/h (0 Bft)
24/11/2011 20:05 6,8 C 87 % 1027,3 hPa 0,0 mm 0,0 km/h (0 Bft) N-NE 22 0 min 0 W/m 4,8 C 6,8 C 0,0 km/h (0 Bft)
24/11/2011 20:10 6,6 C 86 % 1027,3 hPa 0,0 mm 0,0 km/h (0 Bft) N-NE 22 0 min 0 W/m 4,4 C 6,6 C 0,0 km/h (0 Bft)
24/11/2011 20:15 6,5 C 86 % 1027,3 hPa 0,0 mm 0,0 km/h (0 Bft) N-NE 22 0 min 0 W/m 4,3 C 6,5 C 0,0 km/h (0 Bft)
24/11/2011 20:20 6,4 C 86 % 1027,4 hPa 0,0 mm 0,0 km/h (0 Bft) N-NE 22 0 min 0 W/m 4,2 C 6,4 C 0,0 km/h (0 Bft)
24/11/2011 20:25 6,3 C 87 % 1027,3 hPa 0,0 mm 0,0 km/h (0 Bft) N-NE 22 0 min 0 W/m 4,3 C 6,3 C 0,0 km/h (0 Bft)
24/11/2011 20:30 6,3 C 87 % 1027,2 hPa 0,0 mm 0,0 km/h (0 Bft) N-NE 22 0 min 0 W/m 4,3 C 6,3 C 0,0 km/h (0 Bft)
24/11/2011 20:35 6,2 C 87 % 1027,3 hPa 0,0 mm 0,0 km/h (0 Bft) N-NE 22 0 min 0 W/m 4,2 C 6,2 C 0,0 km/h (0 Bft)
24/11/2011 20:40 6,1 C 87 % 1027,3 hPa 0,0 mm 0,0 km/h (0 Bft) N-NE 22 0 min 0 W/m 4,1 C 6,1 C 0,0 km/h (0 Bft)
24/11/2011 20:45 5,9 C 88 % 1027,3 hPa 0,0 mm 0,0 km/h (0 Bft) N-NE 22 0 min 0 W/m 4,1 C 5,9 C 0,0 km/h (0 Bft)
24/11/2011 20:50 5,9 C 88 % 1027,3 hPa 0,0 mm 0,0 km/h (0 Bft) E-NE 67 0 min 0 W/m 4,1 C 5,9 C 0,0 km/h (0 Bft)
24/11/2011 20:55 5,9 C 89 % 1027,3 hPa 0,0 mm 0,0 km/h (0 Bft) E-SE 112 0 min 0 W/m 4,2 C 5,9 C 0,0 km/h (0 Bft)
24/11/2011 21:00 6,0 C 89 % 1027,2 hPa 0,0 mm 0,4 km/h (0 Bft) E 90 0 min 0 W/m 4,3 C 6,0 C 0,4 km/h (0 Bft)
24/11/2011 21:05 6,1 C 89 % 1027,2 hPa 0,0 mm 0,0 km/h (0 Bft) SE 135 0 min 0 W/m 4,4 C 6,1 C 0,0 km/h (0 Bft)
24/11/2011 21:10 6,2 C 89 % 1027,2 hPa 0,0 mm 0,0 km/h (0 Bft) N 360 0 min 0 W/m 4,5 C 6,2 C 0,0 km/h (0 Bft)
24/11/2011 21:15 6,3 C 89 % 1027,3 hPa 0,0 mm 0,0 km/h (0 Bft) E-SE 112 0 min 0 W/m 4,6 C 6,3 C 0,0 km/h (0 Bft)
24/11/2011 21:20 6,3 C 89 % 1027,2 hPa 0,0 mm 0,7 km/h (0 Bft) SE 135 0 min 0 W/m 4,6 C 6,3 C 3,2 km/h (1 Bft)
24/11/2011 21:25 6,3 C 89 % 1027,2 hPa 0,0 mm 1,1 km/h (1 Bft) E-SE 112 0 min 0 W/m 4,6 C 6,3 C 4,0 km/h (1 Bft)
24/11/2011 21:30 6,4 C 89 % 1027,2 hPa 0,0 mm 0,0 km/h (0 Bft) E-SE 112 0 min 0 W/m 4,7 C 6,4 C 1,4 km/h (1 Bft)
24/11/2011 21:35 6,3 C 89 % 1027,1 hPa 0,0 mm 0,0 km/h (0 Bft) E 90 0 min 0 W/m 4,6 C 6,3 C 0,0 km/h (0 Bft)
24/11/2011 21:40 6,2 C 89 % 1027,1 hPa 0,0 mm 0,0 km/h (0 Bft) E 90 0 min 0 W/m 4,5 C 6,2 C 0,0 km/h (0 Bft)
24/11/2011 21:45 6,1 C 89 % 1027,0 hPa 0,0 mm 0,0 km/h (0 Bft) E-NE 67 0 min 0 W/m 4,4 C 6,1 C 0,0 km/h (0 Bft)
24/11/2011 21:50 6,0 C 89 % 1027,1 hPa 0,0 mm 0,0 km/h (0 Bft) E-NE 67 0 min 0 W/m 4,3 C 6,0 C 3,6 km/h (1 Bft)
24/11/2011 21:55 5,8 C 89 % 1027,1 hPa 0,0 mm 0,7 km/h (0 Bft) E-NE 67 0 min 0 W/m 4,1 C 5,8 C 2,9 km/h (1 Bft)
24/11/2011 22:00 5,7 C 89 % 1026,9 hPa 0,0 mm 0,0 km/h (0 Bft) E 90 0 min 0 W/m 4,0 C 5,7 C 0,0 km/h (0 Bft)
24/11/2011 22:05 5,6 C 89 % 1027,0 hPa 0,0 mm 2,5 km/h (1 Bft) E-NE 67 0 min 0 W/m 3,9 C 5,6 C 4,3 km/h (1 Bft)
24/11/2011 22:10 5,4 C 89 % 1026,9 hPa 0,0 mm 2,2 km/h (1 Bft) E-SE 112 0 min 0 W/m 3,7 C 5,4 C 4,0 km/h (1 Bft)
24/11/2011 22:15 5,3 C 89 % 1026,9 hPa 0,0 mm 0,0 km/h (0 Bft) NE 45 0 min 0 W/m 3,6 C 5,3 C 0,0 km/h (0 Bft)
24/11/2011 22:20 5,2 C 89 % 1027,0 hPa 0,0 mm 0,0 km/h (0 Bft) NE 45 0 min 0 W/m 3,5 C 5,2 C 0,0 km/h (0 Bft)
24/11/2011 22:25 4,9 C 90 % 1027,0 hPa 0,0 mm 1,8 km/h (1 Bft) E 90 0 min 0 W/m 3,4 C 4,9 C 4,3 km/h (1 Bft)
24/11/2011 22:30 4,9 C 90 % 1026,9 hPa 0,0 mm 0,7 km/h (0 Bft) E-NE 67 0 min 0 W/m 3,4 C 4,9 C 3,2 km/h (1 Bft)
24/11/2011 22:35 5,0 C 90 % 1026,9 hPa 0,0 mm 0,7 km/h (0 Bft) E-SE 112 0 min 0 W/m 3,5 C 5,0 C 0,7 km/h (0 Bft)
24/11/2011 22:40 5,1 C 90 % 1026,8 hPa 0,0 mm 1,8 km/h (1 Bft) E-NE 67 0 min 0 W/m 3,6 C 5,1 C 1,8 km/h (1 Bft)
24/11/2011 22:45 5,1 C 90 % 1026,9 hPa 0,0 mm 2,2 km/h (1 Bft) E-NE 67 0 min 0 W/m 3,6 C 5,1 C 4,3 km/h (1 Bft)
24/11/2011 22:50 5,0 C 90 % 1026,7 hPa 0,0 mm 0,0 km/h (0 Bft) E 90 0 min 0 W/m 3,5 C 5,0 C 0,0 km/h (0 Bft)
24/11/2011 22:55 4,9 C 90 % 1026,7 hPa 0,0 mm 0,0 km/h (0 Bft) E-NE 67 0 min 0 W/m 3,4 C 4,9 C 0,0 km/h (0 Bft)
24/11/2011 23:00 4,8 C 90 % 1026,7 hPa 0,0 mm 0,0 km/h (0 Bft) E-NE 67 0 min 0 W/m 3,3 C 4,8 C 0,0 km/h (0 Bft)
24/11/2011 23:05 4,6 C 90 % 1026,6 hPa 0,0 mm 0,0 km/h (0 Bft) E 90 0 min 0 W/m 3,1 C 4,6 C 0,0 km/h (0 Bft)
24/11/2011 23:10 4,5 C 90 % 1026,6 hPa 0,0 mm 0,0 km/h (0 Bft) E 90 0 min 0 W/m 3,0 C 4,5 C 0,0 km/h (0 Bft)
24/11/2011 23:15 4,4 C 90 % 1026,6 hPa 0,0 mm 0,0 km/h (0 Bft) E-SE 112 0 min 0 W/m 2,9 C 4,4 C 0,0 km/h (0 Bft)
24/11/2011 23:20 4,3 C 91 % 1026,7 hPa 0,0 mm 0,0 km/h (0 Bft) E-SE 112 0 min 0 W/m 3,0 C 4,3 C 0,0 km/h (0 Bft)
24/11/2011 23:25 4,2 C 91 % 1026,8 hPa 0,0 mm 0,0 km/h (0 Bft) E-SE 112 0 min 0 W/m 2,9 C 4,2 C 0,0 km/h (0 Bft)
24/11/2011 23:30 4,1 C 90 % 1026,7 hPa 0,0 mm 0,0 km/h (0 Bft) E-SE 112 0 min 0 W/m 2,6 C 4,1 C 0,0 km/h (0 Bft)
24/11/2011 23:35 3,9 C 90 % 1026,7 hPa 0,0 mm 0,0 km/h (0 Bft) S-SE 157 0 min 0 W/m 2,4 C 3,9 C 0,0 km/h (0 Bft)
24/11/2011 23:40 3,7 C 91 % 1026,7 hPa 0,0 mm 0,0 km/h (0 Bft) S-SE 157 0 min 0 W/m 2,4 C 3,7 C 0,0 km/h (0 Bft)
24/11/2011 23:45 3,5 C 90 % 1026,7 hPa 0,0 mm 0,0 km/h (0 Bft) S-SE 157 0 min 0 W/m 2,0 C 3,5 C 0,0 km/h (0 Bft)
24/11/2011 23:50 3,3 C 91 % 1026,7 hPa 0,0 mm 0,0 km/h (0 Bft) S-SE 157 0 min 0 W/m 2,0 C 3,3 C 0,0 km/h (0 Bft)
24/11/2011 23:55 3,1 C 91 % 1026,7 hPa 0,0 mm 0,0 km/h (0 Bft) S-SE 157 0 min 0 W/m 1,8 C 3,1 C 0,0 km/h (0 Bft)
_ Min-Heure 23:55 15:40 23:15 - 23:55 - - - - 23:55 23:55 23:55
Minimum _ 3,1 C 68 % 1026,6 hPa - 0,0 km/h (0 Bft) - - - - 1,8 C 3,1 C 0,0 km/h (0 Bft)
_ Max-Heure 13:50 09:15 11:25 23:55 08:10 - - 23:55 23:55 11:15 13:50 06:00
Maximum _ 14,6 C 93 % 1030,1 hPa 0,0 mm 7,6 km/h
N (2 Bft)
- - 0 min 0 W/m 9,2 C 14,6 C 13,0 km/h
E-NE (3 Bft)
Moyenne _ 9,3 C 85 % 1028,2 hPa #0,0 mm 2,0 km/h (1 Bft) NE - #0 min. 0 W/m 6,9 C 9,3 C 3,7 km/h (1 Bft)
Saint Bonnet de Bellac- Haute Vienne - France